   Greenstreet. Measurer T. Lister. 1.0-m f/8.0 Ritchey-Chrétien + CCD.
(W76) CHILESCOPE Observatory, Rio Hurtad  (S30.472506 W70.763050)  Chile.
   Observer H. Sato. 0.61-m f/6.5  astrograph + CCD.
(W79) Cerro Tololo-LCO Aqawan B {#}1  (S30.167669 W70.804650)  Chile.
   Observers T. Lister, J. Chatelain, E. Gomez, S. Greenstreet, I. Kosic.
   Measurer T. Lister. 0.4-m f/8.0 Schmidt-Cassegrain + CCD.
(X03) Observatoire SADR, Poroto  (S30.533914 W70.796390)  Chile.  Observers
   J. L. Virlichie, P. Traverse. 0.35-m f/4.7 Newtonian reflector + CCD.
(X31) Galileo Galilei Observatory, Oro Verde  (S31.823020 W60.520660)
   Argentina.  Observer C. Fornari. 0.40-m f/8 Ritchey-Chrétien + CCD.
(Z45) Cosmos Observatory, Marbella  (N36.516209 W4.857360)  Spain.  Observer
   F. Jackson. 0.35-m f/8 Ritchey- Chretien + CCD.
(Z80) Northolt Branch Observatory  (N51.554659 W0.371920)  UK/England.
   Observer G. Wells. Measurer D. Bamberger. 0.25-m f/8 Ritchey-Chrétien +
   CCD.

Orbital elements:  P21D3Eu
   Perihelion 2023 Jul 5.07058 +/- 104 TT =  1:41:38 (JD 2460130.57058)
Epoch 2023 Jan 25.0 TT = JDT 2459969.5                           AutoNEOCP
M 351.49214128 +/- 5.5              (J2000 ecliptic)
n   0.05282068 +/- 0.000235         Peri.   85.95872 +/- 7
a   7.03504179 +/- 0.0209           Node    78.61651 +/- 0.08
e   0.1277543 +/- 0.00114           Incl.   14.59177 +/- 0.007
P  18.66                   H  9.19  G  0.15   U  7.5
q 6.13628483 +/- 0.0131    Q 7.93379875 +/- 0.0301
From 90 observations 2023 Jan. 13-25; mean residual 0".28
Residuals in arcseconds: 
230113 T05  .10+  .01+    230122 W79  .14-  .02+    230124 U69  .22+  .60-    
230113 T05  .01-  .06-    230122 W76  .01+  .04-    230124 C95  .10+  .17+    
230113 T05  .07-  .09+    230122 W76  .02-  .15-    230124 C95  .13-  .09-    
230113 T05  .05+  .03+    230122 T05  .16+  .04-    230124 C95  .04-  .19-    
230119 N88  .09+  .32+    230122 T05  .05-  .14+    230124 C40  .01-  .01+    
230119 N88  .14+  .21+    230122 T05  .12+  .22+    230124 C40  .21-  .00     
230121 F52  .10+  .08-    230122 T05  .10+  .02-    230124 C40  .02-  .09-    
230121 F52  .17-  .23+    230122 T14  .04+  .05+    230124 I93  .13-  .24+    
230121 F52  .12+  .10-    230122 T14  .05+  .05+    230124 I93  .21-  .09+    
230121 F52  .19-  .28+    230122 T14  .05+  .05+    230124 C40  1.2-  .73+    
230121 J95  .04+  .23-    230123 204  .06-  .14+    230125 I93  .09+  .21+    
230121 J95  .23-  .13-    230123 204  .11-  .08+    230125 I93  .13-  .04+    
230121 J95  .25-  .14-    230123 204  .01-  .12+    230125 I93  .08-  .02-    
230121 J95  .11-  .09-    230123 C95  .10-  .13+    230125 I93  .43-  .04-    
230121 J95  .38-  .09+    230123 C95  .27-  .23+    230125 G40  .24-  .01+    
230121 Z80  .08-  .71-    230123 C95  .82+  .56+    230125 G40  .05-  .11-    
230121 Z80  .14+  .78-    230123 N88  .01-  .03-    230125 V39  .18-  .03+    
230121 Z45  .03-  .28+    230123 N88  .66+  .83+    230125 V39  .13-  .22+    
230121 Z80  .39+  .15-    230124 G40  .42+  .10-    230125 V39  .14-  .03+    
230121 Z45  .44+  .87-    230124 G40  .03+  .22+    230125 V39  .08-  .07+    
230121 Z45  1.1+  .93-    230124 G40  .04+  .07+    230125 V39  .00   .05+    
230121 Z45  .08+  .01+    230124 G40  .08+  .02-    230125 V39  .01-  .16+    
230121 Z45  .60+  .44-    230124 G40  .01+  .14-    230125 V21  .10+  .21+    
230122 Z80  .73-  .57-    230124 950  .42-  .14+    230125 X03  .04+  .08-    
230122 950  .01+  .17-    230124 950  .36-  .11+    230125 X03  .12+  .22-    
230122 950  .31-  .14-    230124 950  .26-  .28+    230125 V21  .45-  .30-    
230122 X31  .09-  .25+    230124 T14  .04+  .00     230125 X03  .24+  .33-    
230122 X31  .15-  .08+    230124 T14  .04+  .00     230125 V21  .17-  .41-    
230122 W79  .13-  .17+    230124 T14  .03+  .00     230125 Q59  .01+  .36-    
230122 W79  .00   .01-    230124 U69  .33-  .21-    230125 Q59  .02-  .17-    

Ephemerides (geocentric):
Date (UTC) HH   RA             Dec           delta  r     elong  mag " sig PA
---- --------  ------------   ------------  ------ ------ -----  --- --------
2023 01 25 22  11 05 45.267   +23 31 53.18  5.3279 6.1491 143.7 17.3 .053  44
2023 01 25 23  11 05 44.626   +23 32 02.35  5.3275 6.1491 143.8 17.3 .055  44
2023 01 26 00  11 05 43.985   +23 32 11.53  5.3271 6.1491 143.8 17.3 .056  44
2023 01 26 01  11 05 43.343   +23 32 20.70  5.3268 6.1491 143.8 17.3 .057  43
2023 01 26 02  11 05 42.700   +23 32 29.87  5.3264 6.1491 143.9 17.3 .059  43
2023 01 26 03  11 05 42.056   +23 32 39.04  5.3261 6.1491 143.9 17.3 .060  43
2023 01 26 04  11 05 41.410   +23 32 48.22  5.3257 6.1491 143.9 17.3 .062  43
2023 01 26 05  11 05 40.764   +23 32 57.40  5.3253 6.1491 144.0 17.3 .063  43
2023 01 26 06  11 05 40.117   +23 33 06.57  5.3250 6.1491 144.0 17.3 .064  43
2023 01 26 07  11 05 39.469   +23 33 15.75  5.3246 6.1491 144.1 17.3 .066  43
2023 01 26 08  11 05 38.820   +23 33 24.93  5.3243 6.1491 144.1 17.3 .067  43
2023 01 26 09  11 05 38.170   +23 33 34.11  5.3239 6.1490 144.1 17.3 .069  43
2023 01 26 10  11 05 37.519   +23 33 43.29  5.3235 6.1490 144.2 17.3 .070  42
2023 01 26 11  11 05 36.867   +23 33 52.47  5.3232 6.1490 144.2 17.3 .071  42
2023 01 26 12  11 05 36.213   +23 34 01.66  5.3228 6.1490 144.3 17.3 .073  42
2023 01 26 13  11 05 35.559   +23 34 10.84  5.3225 6.1490 144.3 17.3 .074  42
2023 01 26 14  11 05 34.904   +23 34 20.03  5.3221 6.1490 144.3 17.3 .076  42
2023 01 26 15  11 05 34.248   +23 34 29.21  5.3218 6.1490 144.4 17.3 .077  42
2023 01 26 16  11 05 33.592   +23 34 38.40  5.3214 6.1490 144.4 17.3 .079  42
2023 01 26 17  11 05 32.934   +23 34 47.59  5.3211 6.1490 144.5 17.3 .080  42
2023 01 26 18  11 05 32.275   +23 34 56.78  5.3207 6.1490 144.5 17.3 .082  42
2023 01 26 19  11 05 31.615   +23 35 05.97  5.3204 6.1490 144.5 17.3 .084  41
2023 01 26 20  11 05 30.954   +23 35 15.16  5.3200 6.1490 144.6 17.3 .085  41
2023 01 26 21  11 05 30.292   +23 35 24.35  5.3196 6.1490 144.6 17.3 .087  41
2023 01 26 22  11 05 29.629   +23 35 33.54  5.3193 6.1490 144.7 17.3 .088  41
2023 01 26 23  11 05 28.966   +23 35 42.73  5.3189 6.1490 144.7 17.3 .090  41
2023 01 27 00  11 05 28.301   +23 35 51.93  5.3186 6.1489 144.7 17.3 .091  41
2023 01 27 01  11 05 27.635   +23 36 01.12  5.3182 6.1489 144.8 17.3 .093  41
2023 01 27 02  11 05 26.968   +23 36 10.32  5.3179 6.1489 144.8 17.3 .095  41
2023 01 27 03  11 05 26.301   +23 36 19.51  5.3175 6.1489 144.9 17.2 .096  41
2023 01 27 04  11 05 25.632   +23 36 28.71  5.3172 6.1489 144.9 17.2 .098  40
2023 01 27 05  11 05 24.963   +23 36 37.91  5.3168 6.1489 144.9 17.2 .099  40
2023 01 27 06  11 05 24.292   +23 36 47.11  5.3165 6.1489 145.0 17.2 .101  40
2023 01 27 07  11 05 23.621   +23 36 56.31  5.3161 6.1489 145.0 17.2 .103  40
2023 01 27 08  11 05 22.948   +23 37 05.51  5.3158 6.1489 145.1 17.2 .104  40
2023 01 27 09  11 05 22.275   +23 37 14.71  5.3155 6.1489 145.1 17.2 .106  40
2023 01 27 10  11 05 21.600   +23 37 23.91  5.3151 6.1489 145.1 17.2 .108  40
2023 01 27 11  11 05 20.925   +23 37 33.11  5.3148 6.1489 145.2 17.2 .110  40
2023 01 27 12  11 05 20.249   +23 37 42.32  5.3144 6.1489 145.2 17.2 .111  40
2023 01 27 13  11 05 19.571   +23 37 51.52  5.3141 6.1489 145.3 17.2 .113  40
2023 01 27 14  11 05 18.893   +23 38 00.72  5.3137 6.1489 145.3 17.2 .115  40
2023 01 27 15  11 05 18.214   +23 38 09.93  5.3134 6.1488 145.3 17.2 .116  39
2023 01 27 16  11 05 17.534   +23 38 19.14  5.3130 6.1488 145.4 17.2 .118  39
2023 01 27 17  11 05 16.853   +23 38 28.34  5.3127 6.1488 145.4 17.2 .120  39
2023 01 27 18  11 05 16.171   +23 38 37.55  5.3123 6.1488 145.5 17.2 .122  39
2023 01 27 19  11 05 15.488   +23 38 46.76  5.3120 6.1488 145.5 17.2 .124  39
2023 01 27 20  11 05 14.804   +23 38 55.97  5.3117 6.1488 145.5 17.2 .125  39
2023 01 27 21  11 05 14.119   +23 39 05.18  5.3113 6.1488 145.6 17.2 .127  39